Weather History for McMinnville, OR

Change the Weather History Date:

Saturday, February 23, 2013

  Actual Average Record
Temperature  
Mean Temperature 41 °F 43 °F  
Max Temperature 49 °F 52 °F 66 °F (2005)
Min Temperature 33 °F 35 °F 22 °F (1957)
Degree Days  
Heating Degree Days 24 22  
Month to date heating degree days 482 520  
Since 1 July heating degree days 2979 3275  
Cooling Degree Days 0 0  
Month to date cooling degree days 0 0  
Year to date cooling degree days 0 0  
Moisture  
Dew Point 34 °F    
Average Humidity 75    
Maximum Humidity 92    
Minimum Humidity 58    
Precipitation  
Precipitation 0.10 in 0.14 in 1.42 in (1986)
Month to date precipitation 1.30 3.64  
Year to date precipitation 2.29 9.74  
Snow  
Snow 0.00 in - - ()
Month to date snowfall 0.0  
Snow Depth 0.00 in    
Sea Level Pressure  
Sea Level Pressure 30.31 in    
Wind  
Wind Speed 8 mph (WSW)    
Max Wind Speed 17 mph    
Max Gust Speed 25 mph    
Visibility 10 miles    
Events Rain    
T = Trace of Precipitation, MM = Missing Value Source: NWS Daily Summary

Daily Weather History Graph

Daily Weather History Graph

Search for Another Location

Airport:

Trip Planner

Search our weather history database for the weather conditions in past years. The results will help you decide how hot, cold, wet, or windy it might be!

Date:

Astronomy

Feb. 23, 2013 Rise Set
Actual Time 7:00 AM PST 5:52 PM PST
Civil Twilight 6:30 AM PST 6:21 PM PST
Nautical Twilight 5:56 AM PST 6:56 PM PST
Astronomical Twilight 5:22 AM PST 7:30 PM PST
Moon 4:05 PM PST (2/23) 5:29 AM PST (2/23)
Length of Visible Light 11h 51m
Length of Day
10h 51m
Waxing Gibbous, 96% of the Moon is Illuminated
Feb 23
Waxing Gibbous
Feb 25
Full
Mar 4
Last Quarter
Mar 11
New
Mar 19
First Quarter

Hourly Weather History & Observations

Time (PST) Temp. Windchill Dew Point Humidity Pressure Visibility Wind Dir Wind Speed Gust Speed Precip Events Conditions
12:53 AM 39.0 °F 32.8 °F 34.0 °F 82% 30.12 in 10.0 mi WSW 9.2 mph - 0.00 in Rain Light Rain
1:53 AM 37.9 °F 32.1 °F 33.1 °F 83% 30.14 in 10.0 mi WSW 8.1 mph - 0.00 in Rain Light Rain
2:53 AM 37.9 °F 30.9 °F 34.0 °F 86% 30.14 in 10.0 mi SW 10.4 mph - 0.01 in Rain Light Rain
3:53 AM 37.9 °F 31.5 °F 34.0 °F 86% 30.16 in 10.0 mi SW 9.2 mph - 0.00 in   Mostly Cloudy
4:23 AM 37.4 °F 31.4 °F 33.8 °F 87% 30.17 in 7.0 mi SW 8.1 mph - 0.04 in Rain Rain
4:53 AM 37.0 °F 31.6 °F 33.1 °F 86% 30.19 in 10.0 mi SSW 6.9 mph - 0.06 in   Mostly Cloudy
5:53 AM 37.9 °F 30.9 °F 34.0 °F 86% 30.20 in 10.0 mi SW 10.4 mph - 0.00 in   Scattered Clouds
6:53 AM 37.9 °F 33.5 °F 35.1 °F 89% 30.23 in 10.0 mi South 5.8 mph - 0.00 in   Overcast
7:53 AM 37.9 °F 32.7 °F 35.1 °F 89% 30.26 in 10.0 mi SSW 6.9 mph - 0.01 in   Mostly Cloudy
8:53 AM 39.9 °F 33.4 °F 36.0 °F 86% 30.29 in 10.0 mi SW 10.4 mph - N/A   Overcast
9:53 AM 43.0 °F 37.2 °F 37.0 °F 80% 30.31 in 10.0 mi SW 10.4 mph - 0.00 in   Overcast
10:53 AM 45.0 °F 40.1 °F 37.0 °F 74% 30.33 in 10.0 mi SW 9.2 mph - N/A   Mostly Cloudy
11:30 AM 44.6 °F 39.7 °F 37.4 °F 76% 30.34 in 4.0 mi SSW 9.2 mph - 0.02 in Rain Light Rain
11:53 AM 46.0 °F 44.8 °F 37.9 °F 73% 30.35 in 10.0 mi Variable 3.5 mph - 0.02 in   Scattered Clouds
12:53 PM 46.9 °F - 35.1 °F 63% 30.34 in 10.0 mi WNW 9.2 mph - N/A   Mostly Cloudy
1:53 PM 46.9 °F - 34.0 °F 61% 30.34 in 10.0 mi West 13.8 mph 21.9 mph N/A   Mostly Cloudy
2:53 PM 48.9 °F - 35.1 °F 59% 30.36 in 10.0 mi WSW 10.4 mph - N/A   Partly Cloudy
3:53 PM 46.9 °F - 32.0 °F 56% 30.37 in 10.0 mi NW 15.0 mph 19.6 mph N/A   Overcast
4:53 PM 45.0 °F 40.1 °F 35.1 °F 68% 30.39 in 10.0 mi WSW 9.2 mph - N/A   Partly Cloudy
5:53 PM 43.0 °F 38.8 °F 32.0 °F 65% 30.40 in 10.0 mi West 6.9 mph - N/A   Clear
6:53 PM 39.0 °F 34.8 °F 32.0 °F 76% 30.43 in 10.0 mi SW 5.8 mph - N/A   Clear
8:53 PM 34.0 °F 29.8 °F 30.0 °F 85% 30.45 in 10.0 mi WSW 4.6 mph - N/A   Partly Cloudy
9:53 PM 33.1 °F 30.0 °F 30.9 °F 92% 30.45 in 10.0 mi Variable 3.5 mph - N/A   Mostly Cloudy
10:53 PM 35.1 °F 32.2 °F 32.0 °F 89% 30.46 in 10.0 mi WNW 3.5 mph - N/A   Overcast
11:53 PM 36.0 °F - 33.1 °F 89% 30.46 in 10.0 mi Calm Calm - N/A   Overcast